Location: Newark
(52.2583°N, 7.1190°W)
Time: 11:29:40
(UTC+00:00)

Transit 4A - Visible Passes

Search period start: 21 November 2019 00:00
Search period end: 01 December 2019 00:00
Orbit: 869 x 976 km, 66.8° (Epoch: 20 November)

Date Brightness Start Highest point End Pass type
(mag) Time Alt. Az. Time Alt. Az. Time Alt. Az.
21 Nov 9.5 03:53:33 25° NNE 03:53:33 25° NNE 03:58:12 10° ENE visible
21 Nov 8.2 05:37:05 22° NNW 05:40:56 62° NE 05:46:42 10° SE visible
21 Nov 8.6 07:21:45 10° NW 07:26:58 33° WSW 07:32:05 10° S visible
22 Nov 9.3 04:02:59 29° NNE 04:03:06 29° NNE 04:08:10 10° E visible
22 Nov 7.8 05:46:31 23° NW 05:50:20 81° NE 05:56:10 10° SE visible
23 Nov 10.7 02:28:56 10° NE 02:28:56 10° NE 02:28:56 10° NE visible
23 Nov 9.0 04:12:28 34° NNE 04:12:45 34° NNE 04:18:03 10° E visible
23 Nov 7.7 05:56:00 24° NW 05:59:40 77° SW 06:05:28 10° SSE visible
24 Nov 10.6 02:38:29 11° ENE 02:38:29 11° ENE 02:38:51 10° ENE visible
24 Nov 8.7 04:22:01 41° NNE 04:22:20 42° NE 04:27:51 10° ESE visible
24 Nov 7.9 06:05:34 25° NW 06:08:56 56° WSW 06:14:36 10° SSE visible
25 Nov 10.5 02:48:06 13° ENE 02:48:06 13° ENE 02:48:49 10° ENE visible
25 Nov 8.3 04:31:39 52° NE 04:31:52 53° NE 04:37:33 10° ESE visible
25 Nov 8.2 06:15:12 24° WNW 06:18:08 41° WSW 06:23:30 10° S visible
26 Nov 10.4 02:57:48 14° ENE 02:57:48 14° ENE 02:58:47 10° E visible
26 Nov 7.9 04:41:21 68° NE 04:41:21 68° NE 04:47:07 10° SE visible
26 Nov 8.6 06:24:54 22° WNW 06:27:15 29° WSW 06:32:10 10° S visible
27 Nov 10.3 03:07:36 15° E 03:07:36 15° E 03:08:43 10° E visible
27 Nov 7.8 04:51:09 78° SE 04:51:09 78° SE 04:56:32 10° SE visible
27 Nov 9.0 06:34:42 19° W 06:36:18 21° WSW 06:40:29 10° SSW visible
28 Nov 10.2 03:17:27 15° E 03:17:27 15° E 03:18:36 10° E visible
28 Nov 8.0 05:01:02 57° S 05:01:02 57° S 05:05:47 10° SSE visible
28 Nov 9.4 06:44:35 14° W 06:45:17 14° WSW 06:48:15 10° SW visible
28 Nov 10.3 20:06:06 10° SSW 20:06:17 11° SSW 20:06:17 11° SSW visible
29 Nov 10.2 03:27:25 15° ESE 03:27:25 15° ESE 03:28:22 10° ESE visible
29 Nov 8.5 05:10:59 38° SSW 05:10:59 38° SSW 05:14:50 10° SSE visible
29 Nov 9.9 18:32:28 10° SE 18:32:48 11° SE 18:32:48 11° SE visible
29 Nov 10.0 20:15:10 10° SSW 20:16:23 16° SSW 20:16:23 16° SSW visible
30 Nov 10.3 03:37:26 13° ESE 03:37:26 13° ESE 03:38:01 10° ESE visible
30 Nov 9.1 05:21:01 24° SSW 05:21:01 24° SSW 05:23:39 10° S visible
30 Nov 9.4 18:40:21 10° SSE 18:42:50 19° SE 18:42:50 19° SE visible
30 Nov 9.7 20:24:27 10° SW 20:26:24 21° SW 20:26:24 21° SW visible
